Tracking 30995 objects as of 7-Jul-2025
HD Live streaming from Space Station
objects crossing your sky now

STARLINK-2575

Track STARLINK-2575 now!
10-day predictions
STARLINK-2575 is classified as:


NORAD ID: 48396
Int'l Code: 2021-038AV
Perigee: 553.4 km
Apogee: 555.3 km
Inclination: 53.1 °
Period: 95.6 minutes
Semi major axis: 6925 km
RCS: Unknown
Launch date: May 4, 2021
Source: United States (US)
Launch site: AIR FORCE EASTERN TEST RANGE (AFETR)
Your satellite tracking list
Your tracking list is empty




NASA's NSSDC Master Catalog

Two Line Element Set (TLE):
1 48396U 21038AV  25187.47914301  .00000040  00000-0  21551-4 0  9998
2 48396  53.0568   6.8984 0001349  91.8940 268.2203 15.06393224231411
Source of the keplerian elements: AFSPC